GFA320 OKKK-OBBI

Flight info

Callsign GFA320
Flight time 0h 51m
Altitude 26000
Route BOXI4E BOXIK B416 IMDOX P975 LONOS L703 KOBOK KOBOK1
Aircraft A320/M-V/N

Departure

Time 2026-04-28 12:14
Airport Kuwait International Airport (OKKK)

Arrival

Time 2026-04-28 13:05
Airport Bahrain International Airport (OBBI)
Time Latitude Longitude Altitude Speed Heading
2026-04-28 11:46 29.23775 47.97174 156 ft 0 kts 54°
2026-04-28 12:03 29.23768 47.97163 155 ft 4 kts 54°
2026-04-28 12:03 29.23753 47.97139 155 ft 3 kts 54°
2026-04-28 12:03 29.23726 47.97107 154 ft 6 kts 25°
2026-04-28 12:04 29.23707 47.97104 154 ft 0 kts 321°
2026-04-28 12:04 29.23696 47.97112 154 ft 4 kts 349°
2026-04-28 12:04 29.23684 47.97116 154 ft 0 kts 336°
2026-04-28 12:08 29.23694 47.97111 154 ft 9 kts 336°
2026-04-28 12:08 29.23789 47.97059 153 ft 17 kts 322°
2026-04-28 12:08 29.23782 47.96955 152 ft 15 kts 250°
2026-04-28 12:09 29.23742 47.96835 150 ft 17 kts 249°
2026-04-28 12:09 29.23707 47.96751 149 ft 18 kts 243°
2026-04-28 12:09 29.23705 47.96584 147 ft 17 kts 327°
2026-04-28 12:09 29.23780 47.96544 146 ft 19 kts 335°
2026-04-28 12:10 29.23862 47.96501 145 ft 0 kts 335°
2026-04-28 12:10 29.23869 47.96497 145 ft 6 kts 335°
2026-04-28 12:10 29.23981 47.96436 144 ft 30 kts 334°
2026-04-28 12:11 29.24100 47.96334 142 ft 0 kts 270°
2026-04-28 12:11 29.24099 47.96328 142 ft 2 kts 259°
2026-04-28 12:11 29.24081 47.96281 142 ft 14 kts 241°
2026-04-28 12:11 29.23975 47.96194 142 ft 15 kts 160°
2026-04-28 12:12 29.23960 47.96205 142 ft 0 kts 151°
2026-04-28 12:13 29.23956 47.96207 142 ft 3 kts 151°
2026-04-28 12:13 29.23703 47.96329 145 ft 79 kts 156°
2026-04-28 12:14 29.22989 47.96673 156 ft 140 kts 149°
2026-04-28 12:14 29.21970 47.97245 270 ft 180 kts 156°
2026-04-28 12:14 29.20799 47.97952 744 ft 207 kts 149°
2026-04-28 12:14 29.19696 47.99157 1442 ft 230 kts 132°
2026-04-28 12:15 29.18752 48.00737 2194 ft 254 kts 120°
2026-04-28 12:15 29.18382 48.02758 3081 ft 268 kts 94°
2026-04-28 12:15 29.18393 48.05048 3271 ft 305 kts 96°
2026-04-28 12:15 29.18053 48.07546 3399 ft 332 kts 109°
2026-04-28 12:16 29.17224 48.10109 3524 ft 355 kts 118°
2026-04-28 12:16 29.16048 48.12693 3651 ft 374 kts 123°
2026-04-28 12:16 29.14710 48.15265 3843 ft 378 kts 125°
2026-04-28 12:16 29.13328 48.17823 4159 ft 379 kts 125°
2026-04-28 12:17 29.11930 48.20400 4393 ft 383 kts 125°
2026-04-28 12:17 29.10532 48.22995 4692 ft 384 kts 125°
2026-04-28 12:17 29.09125 48.25622 4764 ft 392 kts 125°
2026-04-28 12:17 29.07722 48.28258 4740 ft 378 kts 125°
2026-04-28 12:18 29.06402 48.30757 4736 ft 356 kts 125°
2026-04-28 12:18 29.05156 48.33113 4737 ft 336 kts 126°
2026-04-28 12:18 29.03977 48.35335 4738 ft 318 kts 126°
2026-04-28 12:18 29.02858 48.37439 4738 ft 300 kts 127°
2026-04-28 12:19 29.01815 48.39395 4736 ft 283 kts 127°
2026-04-28 12:19 29.00823 48.41253 4797 ft 266 kts 127°
2026-04-28 12:19 28.99823 48.43105 5423 ft 273 kts 127°
2026-04-28 12:19 28.98858 48.44906 6680 ft 259 kts 128°
2026-04-28 12:20 28.97945 48.46620 7922 ft 248 kts 128°
2026-04-28 12:20 28.97038 48.48309 8887 ft 252 kts 128°
2026-04-28 12:20 28.96107 48.50032 9720 ft 258 kts 128°
2026-04-28 12:20 28.95159 48.51790 10501 ft 262 kts 128°
2026-04-28 12:21 28.94198 48.53578 11261 ft 267 kts 128°
2026-04-28 12:21 28.93221 48.55398 12022 ft 271 kts 127°
2026-04-28 12:21 28.92231 48.57244 12778 ft 275 kts 127°
2026-04-28 12:21 28.91223 48.59123 13510 ft 280 kts 127°
2026-04-28 12:22 28.90201 48.61029 14147 ft 286 kts 127°
2026-04-28 12:22 28.89101 48.63061 14286 ft 315 kts 126°
2026-04-28 12:22 28.87902 48.65276 14417 ft 342 kts 126°
2026-04-28 12:22 28.86605 48.67682 14550 ft 368 kts 126°
2026-04-28 12:23 28.85219 48.70258 14679 ft 393 kts 125°
2026-04-28 12:23 28.83744 48.73001 14806 ft 414 kts 125°
2026-04-28 12:23 28.82260 48.75768 14916 ft 406 kts 125°
2026-04-28 12:23 28.80788 48.78507 15030 ft 402 kts 125°
2026-04-28 12:24 28.79349 48.81232 15218 ft 396 kts 123°
2026-04-28 12:24 28.78008 48.83976 16104 ft 392 kts 122°
2026-04-28 12:24 28.76748 48.86622 17476 ft 377 kts 123°
2026-04-28 12:24 28.75524 48.89185 18761 ft 360 kts 124°
2026-04-28 12:25 28.74351 48.91622 20006 ft 341 kts 125°
2026-04-28 12:25 28.73239 48.93919 21188 ft 323 kts 126°
2026-04-28 12:25 28.72143 48.96153 21812 ft 325 kts 127°
2026-04-28 12:25 28.71024 48.98412 22252 ft 329 kts 127°
2026-04-28 12:26 28.69893 49.00695 22754 ft 332 kts 127°
2026-04-28 12:26 28.68754 49.02999 23228 ft 335 kts 127°
2026-04-28 12:26 28.67608 49.05325 23640 ft 338 kts 127°
2026-04-28 12:26 28.66446 49.07682 23989 ft 343 kts 127°
2026-04-28 12:27 28.65277 49.10054 24366 ft 346 kts 128°
2026-04-28 12:27 28.64093 49.12455 24724 ft 349 kts 128°
2026-04-28 12:27 28.62897 49.14880 25061 ft 353 kts 128°
2026-04-28 12:27 28.61689 49.17327 25395 ft 356 kts 128°
2026-04-28 12:28 28.60471 49.19794 25703 ft 359 kts 128°
2026-04-28 12:28 28.59227 49.22269 26000 ft 359 kts 133°
2026-04-28 12:28 28.57646 49.24385 26295 ft 344 kts 150°
2026-04-28 12:28 28.55703 49.25872 26588 ft 331 kts 164°
2026-04-28 12:29 28.51548 49.28260 26748 ft 339 kts 161°
2026-04-28 12:29 28.49578 49.29759 26752 ft 353 kts 151°
2026-04-28 12:29 28.47652 49.31592 26856 ft 355 kts 150°
2026-04-28 12:30 28.45784 49.33380 26984 ft 355 kts 150°
2026-04-28 12:30 28.43886 49.35183 27029 ft 358 kts 150°
2026-04-28 12:30 28.41954 49.37010 27008 ft 363 kts 150°
2026-04-28 12:30 28.40001 49.38851 26982 ft 367 kts 150°
2026-04-28 12:31 28.38021 49.40719 26955 ft 372 kts 150°
2026-04-28 12:31 28.36012 49.42616 26930 ft 377 kts 150°
2026-04-28 12:31 28.33979 49.44534 26905 ft 382 kts 150°
2026-04-28 12:31 28.31926 49.46472 26877 ft 386 kts 150°
2026-04-28 12:32 28.29847 49.48433 26848 ft 391 kts 150°
2026-04-28 12:32 28.27742 49.50417 26818 ft 395 kts 149°
2026-04-28 12:32 28.25620 49.52417 26804 ft 399 kts 149°
2026-04-28 12:32 28.23469 49.54442 26764 ft 404 kts 149°
2026-04-28 12:33 28.21324 49.56461 26762 ft 407 kts 149°
2026-04-28 12:33 28.19143 49.58513 26764 ft 410 kts 149°
2026-04-28 12:33 28.16934 49.60590 26754 ft 413 kts 149°
2026-04-28 12:33 28.14712 49.62678 26749 ft 417 kts 149°
2026-04-28 12:34 28.12462 49.64789 26718 ft 420 kts 149°
2026-04-28 12:34 28.10248 49.66935 26545 ft 415 kts 146°
2026-04-28 12:34 28.08238 49.69259 26315 ft 412 kts 139°
2026-04-28 12:34 28.06359 49.71654 26087 ft 397 kts 145°
2026-04-28 12:35 28.04363 49.73719 25891 ft 381 kts 149°
2026-04-28 12:35 28.02324 49.75580 25546 ft 374 kts 150°
2026-04-28 12:35 28.00321 49.77421 24948 ft 377 kts 151°
2026-04-28 12:35 27.98199 49.79153 24301 ft 377 kts 153°
2026-04-28 12:36 27.96039 49.80888 23690 ft 382 kts 152°
2026-04-28 12:36 27.93939 49.82709 23497 ft 373 kts 149°
2026-04-28 12:36 27.91943 49.84513 23352 ft 360 kts 152°
2026-04-28 12:36 27.89800 49.85783 23003 ft 337 kts 169°
2026-04-28 12:37 27.87615 49.86607 22849 ft 325 kts 169°
2026-04-28 12:37 27.85543 49.87544 22777 ft 316 kts 163°
2026-04-28 12:37 27.83623 49.88662 22774 ft 303 kts 159°
2026-04-28 12:37 27.81831 49.89884 22594 ft 301 kts 156°
2026-04-28 12:38 27.80074 49.91255 22912 ft 312 kts 151°
2026-04-28 12:38 27.78328 49.92893 22808 ft 339 kts 147°
2026-04-28 12:38 27.76471 49.94583 22794 ft 353 kts 154°
2026-04-28 12:38 27.74339 49.96076 22789 ft 370 kts 157°
2026-04-28 12:39 27.72072 49.97612 22738 ft 393 kts 153°
2026-04-28 12:39 27.69873 49.99619 22648 ft 407 kts 147°
2026-04-28 12:39 27.67739 50.01635 22542 ft 393 kts 148°
2026-04-28 12:39 27.65666 50.03563 22427 ft 378 kts 149°
2026-04-28 12:40 27.63658 50.05398 22305 ft 365 kts 149°
2026-04-28 12:40 27.61700 50.07155 22177 ft 353 kts 150°
2026-04-28 12:40 27.59703 50.08885 22076 ft 371 kts 151°
2026-04-28 12:40 27.57523 50.10533 22087 ft 379 kts 161°
2026-04-28 12:41 27.55071 50.11734 22073 ft 393 kts 165°
2026-04-28 12:41 27.52513 50.13025 22053 ft 413 kts 161°
2026-04-28 12:41 27.49922 50.14604 22026 ft 433 kts 156°
2026-04-28 12:41 27.47333 50.16412 21999 ft 451 kts 153°
2026-04-28 12:42 27.44686 50.18396 21937 ft 456 kts 152°
2026-04-28 12:42 27.42104 50.20437 21264 ft 453 kts 150°
2026-04-28 12:42 27.39535 50.22544 20072 ft 461 kts 149°
2026-04-28 12:42 27.36920 50.24697 18965 ft 469 kts 148°
2026-04-28 12:43 27.34287 50.26856 18174 ft 467 kts 148°
2026-04-28 12:43 27.31666 50.28995 17427 ft 462 kts 148°
2026-04-28 12:43 27.29079 50.31098 16753 ft 455 kts 148°
2026-04-28 12:43 27.26531 50.33163 16079 ft 449 kts 148°
2026-04-28 12:44 27.24011 50.35200 15390 ft 444 kts 147°
2026-04-28 12:44 27.21518 50.37214 14732 ft 438 kts 147°
2026-04-28 12:44 27.19055 50.39201 14089 ft 432 kts 147°
2026-04-28 12:44 27.16627 50.41159 13454 ft 426 kts 147°
2026-04-28 12:45 27.14229 50.43093 12726 ft 422 kts 147°
2026-04-28 12:45 27.11894 50.44978 12457 ft 406 kts 147°
2026-04-28 12:45 27.09632 50.46805 12089 ft 395 kts 147°
2026-04-28 12:45 27.07465 50.48552 11906 ft 380 kts 148°
2026-04-28 12:46 27.05360 50.50249 11811 ft 364 kts 148°
2026-04-28 12:46 27.03356 50.51865 11803 ft 346 kts 148°
2026-04-28 12:46 27.01449 50.53401 11802 ft 329 kts 148°
2026-04-28 12:46 26.99637 50.54860 11802 ft 312 kts 149°
2026-04-28 12:47 26.97807 50.55965 11806 ft 289 kts 165°
2026-04-28 12:47 26.95930 50.56452 11803 ft 266 kts 180°
2026-04-28 12:47 26.94151 50.56533 11800 ft 248 kts 183°
2026-04-28 12:47 26.92428 50.56603 11519 ft 252 kts 183°
2026-04-28 12:48 26.90662 50.56674 11436 ft 254 kts 183°
2026-04-28 12:48 26.88890 50.56751 11392 ft 256 kts 183°
2026-04-28 12:48 26.87085 50.56824 11217 ft 262 kts 183°
2026-04-28 12:48 26.85243 50.56890 11084 ft 267 kts 183°
2026-04-28 12:49 26.83390 50.56949 10949 ft 272 kts 184°
2026-04-28 12:49 26.81479 50.57014 10673 ft 276 kts 182°
2026-04-28 12:49 26.79572 50.57139 10374 ft 274 kts 179°
2026-04-28 12:49 26.77688 50.57360 10082 ft 270 kts 180°
2026-04-28 12:50 26.75826 50.57511 9791 ft 267 kts 181°
2026-04-28 12:50 26.73986 50.57688 9512 ft 264 kts 179°
2026-04-28 12:50 26.72174 50.57967 9194 ft 262 kts 177°
2026-04-28 12:50 26.70347 50.58283 8623 ft 270 kts 176°
2026-04-28 12:51 26.68459 50.58601 8030 ft 276 kts 179°
2026-04-28 12:51 26.66593 50.58556 7832 ft 262 kts 191°
2026-04-28 12:51 26.64820 50.58378 7795 ft 250 kts 180°
2026-04-28 12:51 26.63186 50.58897 7803 ft 242 kts 163°
2026-04-28 12:52 26.61647 50.59630 7804 ft 239 kts 163°
2026-04-28 12:52 26.60128 50.60349 7799 ft 236 kts 163°
2026-04-28 12:52 26.58624 50.61050 7784 ft 233 kts 163°
2026-04-28 12:52 26.57114 50.61744 7610 ft 238 kts 164°
2026-04-28 12:53 26.55527 50.62451 7222 ft 252 kts 164°
2026-04-28 12:53 26.54426 50.62930 6966 ft 262 kts 164°
2026-04-28 12:53 26.52674 50.63675 6538 ft 277 kts 163°
2026-04-28 12:53 26.50852 50.64487 6130 ft 287 kts 162°
2026-04-28 12:54 26.48362 50.65722 5414 ft 303 kts 159°
2026-04-28 12:54 26.46433 50.66704 5046 ft 299 kts 159°
2026-04-28 12:54 26.45169 50.67319 5097 ft 288 kts 160°
2026-04-28 12:54 26.43364 50.68196 5056 ft 278 kts 159°
2026-04-28 12:55 26.41639 50.69060 4930 ft 274 kts 158°
2026-04-28 12:55 26.39907 50.69947 4605 ft 275 kts 158°
2026-04-28 12:55 26.38186 50.70828 4040 ft 267 kts 157°
2026-04-28 12:55 26.36545 50.71642 3418 ft 250 kts 158°
2026-04-28 12:56 26.34991 50.72374 2847 ft 234 kts 158°
2026-04-28 12:56 26.33551 50.73060 2626 ft 216 kts 157°
2026-04-28 12:56 26.32187 50.73689 2480 ft 214 kts 158°
2026-04-28 12:56 26.30776 50.74321 2527 ft 224 kts 158°
2026-04-28 12:57 26.29326 50.74961 2738 ft 226 kts 157°
2026-04-28 12:57 26.27832 50.75643 2783 ft 239 kts 157°
2026-04-28 12:57 26.26288 50.76366 2984 ft 243 kts 156°
2026-04-28 12:57 26.24666 50.77178 2763 ft 267 kts 150°
2026-04-28 12:58 26.23106 50.78458 2431 ft 284 kts 133°
2026-04-28 12:58 26.21902 50.80146 2172 ft 278 kts 122°
2026-04-28 12:58 26.20864 50.81926 1932 ft 270 kts 120°
2026-04-28 12:58 26.19883 50.83660 1609 ft 256 kts 121°
2026-04-28 12:59 26.18957 50.85256 1549 ft 235 kts 121°
2026-04-28 12:59 26.18091 50.86710 1461 ft 218 kts 120°
2026-04-28 12:59 26.17276 50.88063 1445 ft 203 kts 129°
2026-04-28 12:59 26.16151 50.89012 1235 ft 213 kts 157°
2026-04-28 13:00 26.14756 50.89319 1315 ft 199 kts 182°
2026-04-28 13:00 26.13511 50.88874 1693 ft 204 kts 217°
2026-04-28 13:00 26.12548 50.87560 2044 ft 239 kts 246°
2026-04-28 13:00 26.12170 50.85719 1902 ft 245 kts 272°
2026-04-28 13:01 26.12378 50.83930 1833 ft 218 kts 293°
2026-04-28 13:01 26.13065 50.82551 1715 ft 195 kts 306°
2026-04-28 13:01 26.13898 50.81249 1504 ft 227 kts 309°
2026-04-28 13:01 26.14951 50.79836 1476 ft 229 kts 313°
2026-04-28 13:02 26.16038 50.78708 1452 ft 199 kts 325°
2026-04-28 13:02 26.17204 50.77912 1393 ft 193 kts 333°
2026-04-28 13:02 26.18359 50.77154 953 ft 197 kts 329°
2026-04-28 13:02 26.19599 50.76184 1065 ft 234 kts 322°
2026-04-28 13:03 26.20785 50.74842 1226 ft 237 kts 303°
2026-04-28 13:03 26.21452 50.73255 1210 ft 221 kts 293°
2026-04-28 13:03 26.22094 50.71726 1020 ft 212 kts 307°
2026-04-28 13:03 26.22964 50.70472 794 ft 198 kts 309°
2026-04-28 13:04 26.23255 50.70013 722 ft 202 kts 306°
2026-04-28 13:04 26.23466 50.69638 694 ft 208 kts 304°
2026-04-28 13:04 26.24225 50.68236 540 ft 213 kts 305°
2026-04-28 13:04 26.25008 50.66878 416 ft 206 kts 305°
2026-04-28 13:05 26.25787 50.65549 226 ft 202 kts 307°
2026-04-28 13:05 26.26525 50.64313 27 ft 181 kts 306°
2026-04-28 13:05 26.27160 50.63236 17 ft 147 kts 302°
2026-04-28 13:05 26.27539 50.62585 16 ft 37 kts 302°
2026-04-28 13:06 26.27572 50.62518 16 ft 13 kts 299°
2026-04-28 13:06 26.27656 50.62368 16 ft 32 kts 302°
2026-04-28 13:06 26.27764 50.62101 16 ft 41 kts 268°
2026-04-28 13:06 26.27717 50.61928 17 ft 0 kts 201°
2026-04-28 13:07 26.27709 50.61929 17 ft 8 kts 174°
2026-04-28 13:07 26.27627 50.62094 17 ft 41 kts 123°
2026-04-28 13:07 26.27541 50.62233 16 ft 0 kts 124°
2026-04-28 13:08 26.27520 50.62266 16 ft 15 kts 124°
2026-04-28 13:08 26.27454 50.62381 18 ft 20 kts 122°
2026-04-28 13:08 26.27393 50.62487 17 ft 0 kts 123°
2026-04-28 13:08 26.27387 50.62498 17 ft 11 kts 123°
2026-04-28 13:09 26.27279 50.62537 17 ft 15 kts 210°
2026-04-28 13:09 26.27198 50.62588 17 ft 15 kts 122°
2026-04-28 13:09 26.27136 50.62694 18 ft 17 kts 124°
2026-04-28 13:09 26.27069 50.62811 17 ft 19 kts 121°
2026-04-28 13:10 26.27001 50.62938 17 ft 20 kts 123°
2026-04-28 13:10 26.26918 50.63067 17 ft 21 kts 127°
2026-04-28 13:10 26.26825 50.63200 16 ft 22 kts 135°
2026-04-28 13:10 26.26752 50.63247 17 ft 1 kts 207°
2026-04-28 13:11 26.26756 50.63249 17 ft 4 kts 206°
2026-04-28 13:11 26.26790 50.63252 18 ft 0 kts 134°
2026-04-28 13:11 26.26775 50.63300 17 ft 12 kts 102°
2026-04-28 13:11 26.26723 50.63419 16 ft 22 kts 122°
2026-04-28 13:12 26.26640 50.63505 17 ft 6 kts 200°
2026-04-28 13:12 26.26622 50.63471 18 ft 7 kts 243°
2026-04-28 13:12 26.26589 50.63435 17 ft 0 kts 212°
2026-04-28 13:12 26.26587 50.63434 17 ft 0 kts 212°